カタログに戻る

NORSAT 3

運用中科学SSO
NORAD 48272·PAYLOAD·🇳🇴 Norway

打ち上げ Apr 29, 2021 から Guiana Space Centre

Loading…

次のパス (今後24時間)

TLE

最新Source: Space-Track

元期: Sep 14, 2026, 22:19 UTC

1 48272U 21034E   26257.93012550  .00002037  00000-0  14419-3 0  9994
2 48272  97.5220 313.0431 0007363  10.0659 350.0715 15.05917792293343

AllMySatでNORSAT 3をリアルタイム追跡

Download on the App Store